{"data":{"norad_id":49151,"epoch":"2026-09-20T01:08:32.246016Z","epoch_age_seconds":80336,"freshness":"FRESH","line1":"1 49151U 21082X   26263.04759544  .00000397  00000+0  41034-4 0  9994","line2":"2 49151  69.9977 124.4006 0002740 269.9977  90.0868 14.98331072277272","mean_motion":14.98331072,"eccentricity":0.000274,"inclination_deg":69.9977,"raan_deg":124.4006,"arg_perigee_deg":269.9977,"mean_anomaly_deg":90.0868,"bstar":4.1034e-5,"rev_number":27727,"period_min":96.10693036472,"perigee_km":570.14822393103,"apogee_km":573.95692781861,"semimajor_km":6950.1895758748,"source":"CELESTRAK","updated_at":"2026-09-20T09:00:39.249754Z"}}